GW7196 Weather Reports


Display with metric or nautical units.
time (UTC)temp
F
wind
direction
speed
MPH
gust
MPH
rain 1hr
in
rain 24hr
in
rain mn
in
humidity
%
barometer
mb
20260506153358 67 127 0.0 2.0 0.00 0.00 0.00 70 1008.6
20260506152855 68 133 1.0 2.0 0.00 0.00 0.00 70 1008.7
20260506152352 68 155 2.0 2.0 0.00 0.00 0.00 69 1008.8
20260506151851 69 238 0.0 2.0 0.00 0.00 0.00 67 1008.7
20260506151347 70 156 2.0 4.0 0.00 0.00 0.00 65 1009.1
20260506150844 70 151 1.0 4.0 0.00 0.00 0.00 66 1008.7
20260506150341 70 111 2.0 3.0 0.00 0.00 0.00 67 1008.7
20260506145838 69 269 0.0 5.0 0.00 0.00 0.00 68 1008.9
20260506145334 69 173 2.0 4.0 0.00 0.00 0.00 67 1008.6
20260506144832 68 122 0.0 4.0 0.00 0.00 0.00 70 1008.6
20260506144328 68 101 3.0 4.0 0.00 0.00 0.00 70 1008.8
20260506143827 68 141 2.0 4.0 0.00 0.00 0.00 69 1008.8
20260506143323 68 114 2.0 2.0 0.00 0.00 0.00 70 1008.7
20260506142821 68 102 0.0 3.0 0.00 0.00 0.00 70 1008.6
20260506142319 68 105 2.0 2.0 0.00 0.00 0.00 69 1008.9
20260506141817 68 49 6.0 6.0 0.00 0.00 0.00 70 1008.7
20260506141315 68 126 3.0 4.0 0.00 0.00 0.00 70 1008.7
20260506140813 68 145 4.0 4.0 0.00 0.00 0.00 69 1008.9
20260506140309 68 116 3.0 3.0 0.00 0.00 0.00 70 1008.8
20260506135806 68 121 2.0 4.0 0.00 0.00 0.00 71 1008.9
20260506135305 68 152 1.0 2.0 0.00 0.00 0.00 70 1009.1
20260506134759 68 255 1.0 2.0 0.00 0.00 0.00 70 1008.7
20260506134256 67 155 2.0 4.0 0.00 0.00 0.00 72 1008.5
20260506133753 67 116 2.0 3.0 0.00 0.00 0.00 73 1008.5
20260506133250 67 119 4.0 4.0 0.00 0.00 0.00 74 1008.9
20260506132746 66 226 1.0 4.0 0.00 0.00 0.00 73 1008.9
20260506132244 66 114 1.0 4.0 0.00 0.00 0.00 75 1009.1
20260506131742 66 149 2.0 2.0 0.00 0.00 0.00 75 1009.0
20260506131237 66 124 3.0 3.0 0.00 0.00 0.00 75 1008.7
20260506130734 66 147 2.0 2.0 0.00 0.00 0.00 76 1008.6
20260506130231 65 181 2.0 3.0 0.00 0.00 0.00 78 1008.8
20260506125729 64 124 2.0 3.0 0.00 0.00 0.00 80 1008.7
20260506125227 63 135 2.0 3.0 0.00 0.00 0.00 81 1008.7
20260506124725 63 127 3.0 3.0 0.00 0.00 0.00 81 1008.7
20260506124223 63 133 2.0 3.0 0.00 0.00 0.00 82 1008.6
20260506123720 62 134 2.0 3.0 0.00 0.00 0.00 82 1008.6
20260506123219 62 110 3.0 4.0 0.00 0.00 0.00 82 1008.5
20260506122715 63 129 3.0 4.0 0.00 0.00 0.00 81 1008.6
20260506122212 63 142 2.0 3.0 0.00 0.00 0.00 81 1008.8
20260506121710 63 131 3.0 4.0 0.00 0.00 0.00 81 1008.9
20260506121206 63 113 2.0 2.0 0.00 0.00 0.00 80 1009.1
20260506120704 63 137 3.0 3.0 0.00 0.00 0.00 81 1009.0
20260506120201 62 146 4.0 4.0 0.00 0.00 0.00 82 1009.2
20260506115700 62 150 2.0 4.0 0.00 0.00 0.00 81 1009.2
20260506115157 62 107 2.0 4.0 0.00 0.00 0.00 82 1009.1
20260506114654 62 144 3.0 4.0 0.00 0.00 0.00 84 1009.1
20260506114152 61 161 2.0 3.0 0.00 0.00 0.00 84 1009.0
20260506113651 61 133 2.0 2.0 0.00 0.00 0.00 85 1009.1
20260506113148 60 160 2.0 2.0 0.00 0.00 0.00 85 1009.0
20260506112643 60 171 2.0 2.0 0.00 0.00 0.00 85 1009.2
20260506112142 60 131 2.0 4.0 0.00 0.00 0.00 86 1009.1
20260506111639 59 120 3.0 4.0 0.00 0.00 0.00 88 1009.1
20260506111136 58 123 3.0 3.0 0.00 0.00 0.00 89 1009.0
20260506110633 58 124 2.0 4.0 0.00 0.00 0.00 90 1009.0
20260506110131 57 117 4.0 4.0 0.00 0.00 0.00 91 1009.2
20260506105627 57 124 2.0 3.0 0.00 0.00 0.00 91 1009.2
20260506105124 57 137 2.0 4.0 0.00 0.00 0.00 92 1009.0
20260506104623 56 133 3.0 3.0 0.00 0.00 0.00 93 1009.1
20260506104120 56 143 2.0 3.0 0.00 0.00 0.00 93 1009.2
20260506103617 56 141 2.0 3.0 0.00 0.00 0.00 94 1009.0
20260506103114 55 125 2.0 2.0 0.00 0.00 0.00 94 1009.2
20260506102612 55 161 2.0 4.0 0.00 0.00 0.00 94 1009.1
20260506102109 55 136 2.0 3.0 0.00 0.00 0.00 94 1009.0
20260506101606 55 113 3.0 6.0 0.00 0.00 0.00 94 1008.8
20260506101102 55 123 3.0 4.0 0.00 0.00 0.00 94 1008.8
20260506100601 54 126 4.0 4.0 0.00 0.00 0.00 94 1008.9
20260506100059 54 134 4.0 4.0 0.00 0.00 0.00 94 1008.9
20260506095557 54 132 3.0 4.0 0.00 0.00 0.00 94 1008.9
20260506095053 54 143 3.0 3.0 0.00 0.00 0.00 94 1009.0
20260506094551 54 145 2.0 4.0 0.00 0.00 0.00 94 1008.9
20260506094049 54 154 3.0 3.0 0.00 0.00 0.00 93 1009.0
20260506093547 54 154 2.0 3.0 0.00 0.00 0.00 93 1008.9
20260506093044 54 119 4.0 4.0 0.00 0.00 0.00 93 1008.9
20260506092542 54 132 2.0 3.0 0.00 0.00 0.00 92 1009.0
20260506092038 55 151 2.0 3.0 0.00 0.00 0.00 92 1008.9
20260506091537 55 141 2.0 3.0 0.00 0.00 0.00 92 1009.0
20260506091033 55 141 2.0 4.0 0.00 0.00 0.00 92 1008.8
20260506090531 55 136 2.0 3.0 0.00 0.00 0.00 91 1008.9
20260506090027 55 139 3.0 3.0 0.00 0.00 0.00 91 1009.1
20260506085524 55 149 2.0 3.0 0.00 0.00 0.00 90 1009.1
20260506085021 55 121 3.0 4.0 0.00 0.00 0.00 90 1009.3
20260506084518 55 131 3.0 4.0 0.00 0.00 0.00 90 1009.2
20260506084014 55 125 3.0 4.0 0.00 0.00 0.00 90 1009.4
20260506083511 55 139 4.0 4.0 0.00 0.00 0.00 90 1009.2
20260506083009 55 138 4.0 4.0 0.00 0.00 0.00 89 1009.4
20260506082505 56 125 3.0 4.0 0.00 0.00 0.00 89 1009.3
20260506082001 56 128 4.0 4.0 0.00 0.00 0.00 89 1009.5
20260506081459 56 130 4.0 4.0 0.00 0.00 0.00 89 1009.4
20260506080957 56 147 2.0 4.0 0.00 0.00 0.00 88 1009.3
20260506080454 56 127 4.0 4.0 0.00 0.00 0.00 88 1009.2
20260506073437 57 137 3.0 4.0 0.00 0.00 0.00 86 1009.0
20260506072935 57 115 4.0 4.0 0.00 0.00 0.00 85 1009.3
20260506072432 57 123 4.0 5.0 0.00 0.00 0.00 85 1009.4
20260506071929 57 122 4.0 5.0 0.00 0.00 0.00 85 1009.3
20260506071427 57 119 3.0 4.0 0.00 0.00 0.00 85 1009.5
20260506070924 57 135 3.0 4.0 0.00 0.00 0.00 85 1009.6
20260506070421 57 106 3.0 4.0 0.00 0.00 0.00 84 1009.4
20260506062358 57 128 2.0 3.0 0.00 0.00 0.00 84 1009.5
20260506061854 58 127 2.0 3.0 0.00 0.00 0.00 83 1009.5
20260506061351 58 123 3.0 3.0 0.00 0.00 0.00 83 1009.4
20260506060849 58 146 2.0 3.0 0.00 0.00 0.00 83 1009.6
20260506060347 58 128 3.0 3.0 0.00 0.00 0.00 82 1009.6
20260506051318 59 131 2.0 3.0 0.00 0.00 0.00 81 1010.0
20260506050816 59 127 3.0 3.0 0.00 0.00 0.00 81 1009.9
20260506050313 59 141 3.0 3.0 0.00 0.00 0.00 81 1009.8
20260506044804 59 142 2.0 3.0 0.00 0.00 0.00 80 1009.9
20260506044301 59 136 2.0 3.0 0.00 0.00 0.00 80 1010.1
20260506043758 59 138 2.0 3.0 0.00 0.00 0.00 79 1010.1
20260506043255 59 152 2.0 2.0 0.00 0.00 0.00 78 1009.9
20260506042754 60 151 2.0 3.0 0.00 0.00 0.00 78 1010.1
20260506042253 60 139 2.0 2.0 0.00 0.00 0.00 76 1010.0
20260506041751 60 132 2.0 3.0 0.00 0.00 0.00 76 1009.8
20260506041248 60 154 2.0 2.0 0.00 0.00 0.00 76 1009.9
20260506040745 60 142 2.0 2.0 0.00 0.00 0.00 76 1009.8
20260506040242 60 155 2.0 2.0 0.00 0.00 0.00 76 1010.0
20260506035739 60 143 2.0 3.0 0.00 0.00 0.00 75 1009.7
20260506035235 60 148 2.0 3.0 0.00 0.00 0.00 75 1010.0
20260506034732 60 141 2.0 2.0 0.00 0.00 0.00 74 1009.8
20260506034230 61 162 2.0 2.0 0.00 0.00 0.00 75 1009.9
20260506033727 61 142 2.0 2.0 0.00 0.00 0.00 74 1009.9
20260506033224 61 150 2.0 3.0 0.00 0.00 0.00 73 1009.8
20260506032721 61 149 2.0 2.0 0.00 0.00 0.00 72 1009.8
20260506032217 62 152 2.0 2.0 0.00 0.00 0.00 72 1009.7
20260506031714 62 145 2.0 2.0 0.00 0.00 0.00 72 1009.6
20260506031212 62 167 2.0 3.0 0.00 0.00 0.00 72 1009.7
20260506030710 62 133 2.0 2.0 0.00 0.00 0.00 72 1009.7
20260506030207 62 151 2.0 3.0 0.00 0.00 0.00 73 1009.7
20260506025704 62 144 2.0 3.0 0.00 0.00 0.00 72 1009.8
20260506025200 62 153 2.0 2.0 0.00 0.00 0.00 72 1009.6
20260506024657 62 143 2.0 3.0 0.00 0.00 0.00 72 1009.6
20260506024153 62 186 2.0 2.0 0.00 0.00 0.00 72 1009.6
20260506023650 62 189 2.0 2.0 0.00 0.00 0.00 72 1009.8
20260506023147 62 153 2.0 2.0 0.00 0.00 0.00 71 1009.8
20260506022644 62 141 2.0 2.0 0.00 0.00 0.00 72 1009.8
20260506022142 62 181 1.0 2.0 0.00 0.00 0.00 71 1009.7
20260506021639 62 160 2.0 2.0 0.00 0.00 0.00 71 1009.8
20260506021136 62 176 1.0 2.0 0.00 0.00 0.00 71 1009.7
20260506020633 62 167 2.0 3.0 0.00 0.00 0.00 71 1009.8
20260506020131 62 154 2.0 2.0 0.00 0.00 0.00 71 1009.6
20260506015628 62 209 0.0 3.0 0.00 0.00 0.00 71 1009.6
20260506015125 62 139 2.0 3.0 0.00 0.00 0.00 71 1009.6
20260506014623 62 161 2.0 2.0 0.00 0.00 0.00 71 1009.5
20260506014118 62 187 1.0 2.0 0.00 0.00 0.00 70 1009.5
20260506013617 62 231 2.0 2.0 0.00 0.00 0.00 70 1009.3
20260506013113 62 120 2.0 4.0 0.00 0.00 0.00 70 1009.2
20260506012609 63 125 2.0 2.0 0.00 0.00 0.00 69 1009.1
20260506012106 63 193 2.0 4.0 0.00 0.00 0.00 68 1009.1
20260506011604 63 145 2.0 3.0 0.00 0.00 0.00 68 1009.0
20260506011100 64 146 3.0 5.0 0.00 0.00 0.00 67 1008.9
20260506010554 64 146 2.0 4.0 0.00 0.00 0.00 66 1009.0
20260506010050 64 136 4.0 4.0 0.00 0.00 0.00 65 1008.9
20260506005547 65 140 4.0 5.0 0.00 0.00 0.00 64 1008.9
20260506005043 65 142 3.0 5.0 0.00 0.00 0.00 63 1008.8
20260506004540 65 134 3.0 5.0 0.00 0.00 0.00 64 1008.9
20260506004037 65 118 5.0 5.0 0.00 0.00 0.00 64 1008.8
20260506003533 66 141 3.0 3.0 0.00 0.00 0.00 64 1008.6
20260506003030 66 133 3.0 4.0 0.00 0.00 0.00 62 1008.7
20260506002526 66 136 3.0 4.0 0.00 0.00 0.00 63 1008.5
20260506002021 66 122 2.0 3.0 0.00 0.00 0.00 61 1008.6
20260506001518 66 122 4.0 5.0 0.00 0.00 0.00 62 1008.4
20260506001015 67 172 1.0 4.0 0.00 0.00 0.00 61 1008.5
20260506000513 67 142 2.0 3.0 0.00 0.00 0.00 60 1008.3
20260506000010 67 146 2.0 4.0 0.00 0.00 0.00 59 1008.5
20260505235508 67 135 3.0 4.0 0.00 0.00 0.00 60 1008.3
20260505235004 67 142 2.0 3.0 0.00 0.00 0.00 62 1008.3
20260505234502 67 121 4.0 4.0 0.00 0.00 0.00 61 1008.3
20260505233958 67 148 2.0 5.0 0.00 0.00 0.00 61 1008.1
20260505233456 68 125 4.0 4.0 0.00 0.00 0.00 60 1008.2
20260505232953 68 152 2.0 3.0 0.00 0.00 0.00 58 1007.9
20260505232451 68 140 2.0 3.0 0.00 0.00 0.00 58 1007.8
20260505231948 69 141 0.0 3.0 0.00 0.00 0.00 58 1007.6
20260505231445 69 138 3.0 4.0 0.00 0.00 0.00 57 1007.6
20260505230943 69 127 3.0 4.0 0.00 0.00 0.00 56 1007.7
20260505230441 70 124 4.0 4.0 0.00 0.00 0.00 57 1007.6
20260505225937 70 120 3.0 4.0 0.00 0.00 0.00 56 1007.5
20260505225434 70 140 2.0 4.0 0.00 0.00 0.00 56 1007.5
20260505224930 71 172 2.0 3.0 0.00 0.00 0.00 53 1007.6
20260505224427 71 146 3.0 3.0 0.00 0.00 0.00 54 1007.4
20260505223924 71 157 1.0 2.0 0.00 0.00 0.00 52 1007.3
20260505223421 71 123 4.0 4.0 0.00 0.00 0.00 53 1007.3
20260505222917 72 117 5.0 6.0 0.00 0.00 0.00 52 1007.3
20260505222414 72 151 2.0 3.0 0.00 0.00 0.00 50 1007.0
20260505221910 73 134 4.0 4.0 0.00 0.00 0.00 52 1007.2
20260505221407 73 129 3.0 3.0 0.00 0.00 0.00 54 1007.3
20260505220904 73 147 2.0 2.0 0.00 0.00 0.00 51 1007.1
20260505220401 73 195 2.0 4.0 0.00 0.00 0.00 52 1007.4
20260505215859 73 143 2.0 3.0 0.00 0.00 0.00 52 1007.3
20260505215357 73 139 3.0 5.0 0.00 0.00 0.00 50 1007.2
20260505214854 73 138 3.0 5.0 0.00 0.00 0.00 51 1007.2
20260505214351 74 111 4.0 5.0 0.00 0.00 0.00 50 1007.1
20260505213849 74 128 2.0 2.0 0.00 0.00 0.00 50 1007.1
20260505213347 74 124 3.0 4.0 0.00 0.00 0.00 48 1007.1
20260505212842 75 150 1.0 4.0 0.00 0.00 0.00 47 1006.8
20260505212340 75 148 2.0 5.0 0.00 0.00 0.00 47 1006.8
20260505211836 75 125 5.0 5.0 0.00 0.00 0.00 49 1006.9
20260505211333 75 155 3.0 3.0 0.00 0.00 0.00 50 1006.9
20260505210830 75 115 4.0 4.0 0.00 0.00 0.00 49 1006.8
20260505210327 76 136 4.0 5.0 0.00 0.00 0.00 48 1006.8
20260505205823 76 145 1.0 3.0 0.00 0.00 0.00 48 1006.8
20260505205322 75 151 3.0 6.0 0.00 0.00 0.00 47 1006.8
20260505204818 76 138 3.0 4.0 0.00 0.00 0.00 49 1006.9
20260505204317 76 121 3.0 5.0 0.00 0.00 0.00 48 1006.7
20260505203814 76 110 3.0 3.0 0.00 0.00 0.00 48 1007.0
20260505203310 76 136 4.0 6.0 0.00 0.00 0.00 46 1007.0
20260505202806 76 152 2.0 4.0 0.00 0.00 0.00 48 1007.2
20260505202306 76 101 2.0 4.0 0.00 0.00 0.00 47 1007.2
20260505201759 76 86 3.0 5.0 0.00 0.00 0.00 46 1007.0
20260505201257 77 133 4.0 5.0 0.00 0.00 0.00 47 1007.1
20260505200755 77 135 6.0 6.0 0.00 0.00 0.00 45 1007.2
20260505200252 77 114 3.0 4.0 0.00 0.00 0.00 45 1007.2
20260505195747 78 119 5.0 6.0 0.00 0.00 0.00 44 1007.2
20260505195245 78 112 3.0 6.0 0.00 0.00 0.00 45 1007.4
20260505194742 78 109 4.0 6.0 0.00 0.00 0.00 45 1007.4
20260505194238 78 6 2.0 4.0 0.00 0.00 0.00 45 1007.5
20260505193734 79 107 3.0 6.0 0.00 0.00 0.00 44 1007.6
20260505193232 80 108 4.0 5.0 0.00 0.00 0.00 42 1007.7
20260505192730 80 333 1.0 4.0 0.00 0.00 0.00 42 1007.7
20260505192227 80 142 3.0 5.0 0.00 0.00 0.00 42 1007.6
20260505191725 81 115 3.0 4.0 0.00 0.00 0.00 42 1007.7
20260505191224 81 107 3.0 4.0 0.00 0.00 0.00 42 1007.7
20260505190719 81 124 3.0 4.0 0.00 0.00 0.00 41 1007.6
20260505190219 81 170 2.0 5.0 0.00 0.00 0.00 42 1007.8
20260505185716 81 124 3.0 6.0 0.00 0.00 0.00 40 1007.9
20260505185213 82 113 3.0 4.0 0.00 0.00 0.00 40 1008.1
20260505184709 83 138 3.0 6.0 0.00 0.00 0.00 39 1008.1
20260505184206 83 76 1.0 4.0 0.00 0.00 0.00 38 1008.1
20260505183703 83 347 1.0 3.0 0.00 0.00 0.00 38 1008.3
20260505183200 84 104 0.0 4.0 0.00 0.00 0.00 39 1008.3
20260505182656 84 135 0.0 3.0 0.00 0.00 0.00 39 1008.2
20260505182154 83 91 0.0 4.0 0.00 0.00 0.00 39 1008.3
20260505181650 83 147 3.0 4.0 0.00 0.00 0.00 39 1008.3
20260505181148 84 135 2.0 4.0 0.00 0.00 0.00 38 1008.1
20260505180643 84 264 0.0 3.0 0.00 0.00 0.00 40 1008.4
20260505180141 85 115 3.0 5.0 0.00 0.00 0.00 37 1008.3
20260505175637 84 273 1.0 2.0 0.00 0.00 0.00 39 1008.3
20260505175133 84 176 1.0 4.0 0.00 0.00 0.00 39 1008.3
20260505174630 84 116 3.0 5.0 0.00 0.00 0.00 37 1008.3
20260505174126 86 120 5.0 5.0 0.00 0.00 0.00 36 1008.4
20260505173623 85 266 3.0 3.0 0.00 0.00 0.00 42 1008.5
20260505173120 84 166 2.0 3.0 0.00 0.00 0.00 38 1008.4
20260505172618 85 74 2.0 4.0 0.00 0.00 0.00 34 1008.7
20260505172114 84 134 1.0 2.0 0.00 0.00 0.00 38 1008.7
20260505171614 83 115 1.0 3.0 0.00 0.00 0.00 38 1008.7
20260505171112 83 180 2.0 4.0 0.00 0.00 0.00 38 1008.7
20260505170609 83 1 0.0 3.0 0.00 0.00 0.00 37 1008.9
20260505170105 83 106 3.0 5.0 0.00 0.00 0.00 38 1008.8
20260505165600 83 148 2.0 6.0 0.00 0.00 0.00 37 1009.0
20260505165056 82 131 1.0 4.0 0.00 0.00 0.00 37 1009.1
20260505164552 82 128 2.0 3.0 0.00 0.00 0.00 38 1009.1
20260505164050 82 116 4.0 4.0 0.00 0.00 0.00 38 1009.1
20260505163548 82 134 2.0 3.0 0.00 0.00 0.00 39 1009.3
20260505163045 82 97 2.0 2.0 0.00 0.00 0.00 38 1009.5
20260505162538 82 182 1.0 3.0 0.00 0.00 0.00 39 1009.3
20260505162035 81 94 3.0 3.0 0.00 0.00 0.00 40 1009.5
20260505161532 80 129 2.0 4.0 0.00 0.00 0.00 39 1009.6
20260505161029 81 114 2.0 4.0 0.00 0.00 0.00 40 1009.5
20260505160527 80 224 2.0 2.0 0.00 0.00 0.00 43 1009.7